Kaneohe MCBH, HI

4:32 AM HST on October 22, 2019 (GMT -1000)
Kaneohe Bay Marine Corps Air Facility

Weather History for PHNG - September, 2019

Change the Weather History Date:

Sunday, September 15, 2019

  Actual Average Record
Temperature  
Mean Temperature 84 °F -  
Max Temperature 87 °F 81 °F 87 °F (2017)
Min Temperature 80 °F 72 °F 72 °F (2008)
Cooling Degree Days 18    
Growing Degree Days 34 (Base 50)    
Moisture  
Dew Point 74 °F    
Average Humidity 73    
Maximum Humidity 85    
Minimum Humidity 65    
Precipitation  
Precipitation 0.00 in - - ()
Sea Level Pressure  
Sea Level Pressure 29.92 in    
Wind  
Wind Speed 6 mph ()    
Max Wind Speed 13 mph    
Max Gust Speed 21 mph    
Visibility 10.0 miles    
Events      
Averages and records for this station are not official NWS values.
T = Trace of Precipitation, MM = Missing Value Source: Averaged Metar Reports

Daily Weather History Graph

Daily Weather History Graph

Search for Another Location

Airport or City:

Astronomy

Sep. 15, 2019 Rise Set
Actual Time 6:18 AM HST 6:34 PM HST
Civil Twilight 5:55 AM HST 6:56 PM HST
Nautical Twilight 5:29 AM HST 7:22 PM HST
Astronomical Twilight 5:03 AM HST 7:48 PM HST
Moon 7:55 PM HST (9/15) 7:34 AM HST (9/15)
Length of Visible Light 13h 00m
Length of Day
12h 16m
Full, 97% of the Moon is Illuminated
Sep 15
Full
Sep 21
Last Quarter
Sep 28
New
Oct 5
First Quarter
Oct 13
Full

Hourly Weather History & Observations

Time (HST) Temp. Heat Index Dew Point Humidity Pressure Visibility Wind Dir Wind Speed Gust Speed Precip Events Conditions
12:36 AM 81.0 °F 85.8 °F 73.0 °F 77% 29.93 in 10.0 mi ESE 4.6 mph - N/A   Mostly Cloudy
12:57 AM 81.0 °F 85.8 °F 73.0 °F 77% 29.92 in 10.0 mi Variable 5.8 mph - N/A   Mostly Cloudy
1:26 AM 81.0 °F 86.2 °F 73.9 °F 79% 29.92 in 10.0 mi Calm Calm - N/A   Scattered Clouds
1:57 AM 80.1 °F 84.2 °F 73.0 °F 79% 29.91 in 10.0 mi Calm Calm - N/A   Partly Cloudy
2:57 AM 80.1 °F 85.1 °F 75.0 °F 85% 29.90 in 10.0 mi SW 3.5 mph - N/A   Mostly Cloudy
3:57 AM 80.1 °F 84.5 °F 73.9 °F 81% 29.90 in 10.0 mi Calm Calm - N/A   Overcast
5:57 AM 81.0 °F 86.2 °F 73.9 °F 79% 29.92 in 10.0 mi SSE 5.8 mph - N/A   Scattered Clouds
6:05 AM 80.1 °F 84.5 °F 73.9 °F 81% 29.93 in 10.0 mi SE 5.8 mph - N/A   Mostly Cloudy
6:13 AM 81.0 °F 86.2 °F 73.9 °F 79% 29.94 in 10.0 mi ESE 3.5 mph - N/A   Partly Cloudy
6:57 AM 82.0 °F 87.9 °F 73.9 °F 76% 29.92 in 10.0 mi East 5.8 mph - N/A   Partly Cloudy
7:57 AM 82.9 °F 88.0 °F 72.0 °F 69% 29.94 in 10.0 mi East 9.2 mph - N/A   Partly Cloudy
8:57 AM 84.9 °F 91.4 °F 73.0 °F 67% 29.95 in 10.0 mi East 8.1 mph - N/A   Scattered Clouds
9:36 AM 86.0 °F 93.0 °F 73.0 °F 65% 29.96 in 10.0 mi ENE 9.2 mph - N/A   Mostly Cloudy
9:57 AM 86.0 °F 93.8 °F 73.9 °F 67% 29.95 in 10.0 mi ENE 9.2 mph - N/A   Overcast
10:57 AM 84.9 °F 91.4 °F 73.0 °F 67% 29.94 in 10.0 mi ENE 12.7 mph - N/A   Mostly Cloudy
11:57 AM 86.0 °F 93.0 °F 73.0 °F 65% 29.93 in 10.0 mi ENE 12.7 mph - N/A   Overcast
12:57 PM 86.0 °F 93.8 °F 73.9 °F 67% 29.91 in 10.0 mi ENE 12.7 mph - N/A   Overcast
1:57 PM 87.1 °F 95.4 °F 73.9 °F 65% 29.89 in 10.0 mi ENE 12.7 mph - N/A   Overcast
2:07 PM 87.1 °F 95.4 °F 73.9 °F 65% 29.90 in 10.0 mi ENE 12.7 mph - N/A   Mostly Cloudy
2:57 PM 86.0 °F 93.8 °F 73.9 °F 67% 29.87 in 10.0 mi ENE 10.4 mph - N/A   Mostly Cloudy
3:57 PM 84.0 °F 90.2 °F 73.0 °F 69% 29.87 in 10.0 mi East 6.9 mph - N/A   Mostly Cloudy
4:13 PM 84.0 °F 90.2 °F 73.0 °F 69% 29.89 in 10.0 mi ENE 11.5 mph - N/A   Mostly Cloudy
4:50 PM 84.0 °F 91.2 °F 73.9 °F 72% 29.89 in 10.0 mi ENE 9.2 mph - N/A   Mostly Cloudy
4:57 PM 84.0 °F 91.2 °F 73.9 °F 72% 29.88 in 10.0 mi East 11.5 mph 18.4 mph N/A   Mostly Cloudy
5:57 PM 82.9 °F 89.4 °F 73.9 °F 74% 29.88 in 10.0 mi East 10.4 mph - N/A   Overcast
6:13 PM 82.9 °F 89.4 °F 73.9 °F 74% 29.90 in 10.0 mi East 11.5 mph 18.4 mph N/A   Mostly Cloudy
6:54 PM 82.4 °F 88.2 °F 73.4 °F 74% 29.91 in 10.0 mi East 10.4 mph 19.6 mph N/A   Mostly Cloudy
6:57 PM 82.9 °F 89.4 °F 73.9 °F 74% 29.90 in 10.0 mi East 9.2 mph 20.7 mph N/A   Mostly Cloudy
7:05 PM 82.9 °F 89.4 °F 73.9 °F 74% 29.91 in 10.0 mi East 9.2 mph 17.3 mph N/A   Mostly Cloudy
7:57 PM 82.0 °F 87.9 °F 73.9 °F 76% 29.91 in 10.0 mi East 10.4 mph - N/A   Scattered Clouds
8:57 PM 82.0 °F 87.9 °F 73.9 °F 76% 29.94 in 10.0 mi East 10.4 mph - N/A   Mostly Cloudy
9:57 PM 82.0 °F 88.6 °F 75.0 °F 79% 29.93 in 10.0 mi East 10.4 mph - N/A   Mostly Cloudy
10:18 PM 81.0 °F 86.7 °F 75.0 °F 82% 29.94 in 10.0 mi SE 8.1 mph - N/A   Mostly Cloudy
10:47 PM 82.0 °F 87.4 °F 73.0 °F 74% 29.94 in 10.0 mi ESE 6.9 mph - N/A   Overcast
10:57 PM 82.0 °F 87.4 °F 73.0 °F 74% 29.92 in 10.0 mi East 5.8 mph - N/A   Overcast
11:57 PM 82.0 °F 87.4 °F 73.0 °F 74% 29.91 in 10.0 mi East 8.1 mph - N/A   Partly Cloudy